owner,sensor,date,latitude,longitude,sea_surface_height_above_sea_level,qcFlag 
TCOON,ioos:station:TCOON:005:1,2016-08-01T00:18:00Z,27.6346,-97.2370,1.003,1111122 
TCOON,ioos:station:TCOON:005:1,2016-08-01T01:18:00Z,27.6346,-97.2370,0.985,1111122 
TCOON,ioos:station:TCOON:005:1,2016-08-01T02:18:00Z,27.6346,-97.2370,0.966,1111122 
TCOON,ioos:station:TCOON:005:1,2016-08-01T03:18:00Z,27.6346,-97.2370,0.952,1111122 
TCOON,ioos:station:TCOON:005:1,2016-08-01T04:18:00Z,27.6346,-97.2370,0.942,1111122 
TCOON,ioos:station:TCOON:005:1,2016-08-01T05:18:00Z,27.6346,-97.2370,0.935,1111122 
TCOON,ioos:station:TCOON:005:1,2016-08-01T06:18:00Z,27.6346,-97.2370,0.938,1111122 
TCOON,ioos:station:TCOON:005:1,2016-08-01T07:18:00Z,27.6346,-97.2370,0.941,1111122 
TCOON,ioos:station:TCOON:005:1,2016-08-01T08:18:00Z,27.6346,-97.2370,0.945,1111122 
TCOON,ioos:station:TCOON:005:1,2016-08-01T09:18:00Z,27.6346,-97.2370,0.954,1111122 
TCOON,ioos:station:TCOON:005:1,2016-08-01T10:18:00Z,27.6346,-97.2370,0.97,1111122 
TCOON,ioos:station:TCOON:005:1,2016-08-01T11:12:00Z,27.6346,-97.2370,0.982,1111122 
TCOON,ioos:station:TCOON:005:1,2016-08-01T12:18:00Z,27.6346,-97.2370,1.003,1111122 
TCOON,ioos:station:TCOON:005:1,2016-08-01T13:18:00Z,27.6346,-97.2370,1.02,1111122 
TCOON,ioos:station:TCOON:005:1,2016-08-01T14:18:00Z,27.6346,-97.2370,1.036,1111122 
TCOON,ioos:station:TCOON:005:1,2016-08-01T15:18:00Z,27.6346,-97.2370,1.041,1111122 
TCOON,ioos:station:TCOON:005:1,2016-08-01T16:18:00Z,27.6346,-97.2370,1.05,1111122 
TCOON,ioos:station:TCOON:005:1,2016-08-01T17:18:00Z,27.6346,-97.2370,1.057,1111122 
TCOON,ioos:station:TCOON:005:1,2016-08-01T18:18:00Z,27.6346,-97.2370,1.061,1111122 
TCOON,ioos:station:TCOON:005:1,2016-08-01T19:24:00Z,27.6346,-97.2370,1.063,1111122 
TCOON,ioos:station:TCOON:005:1,2016-08-01T20:18:00Z,27.6346,-97.2370,1.069,1111122 
TCOON,ioos:station:TCOON:005:1,2016-08-01T21:18:00Z,27.6346,-97.2370,1.058,1111122 
TCOON,ioos:station:TCOON:005:1,2016-08-01T22:18:00Z,27.6346,-97.2370,1.045,1111122 
TCOON,ioos:station:TCOON:005:1,2016-08-01T23:18:00Z,27.6346,-97.2370,1.034,1111122 
TCOON,ioos:station:TCOON:005:1,2016-08-02T00:18:00Z,27.6346,-97.2370,1.012,1111122 
TCOON,ioos:station:TCOON:005:1,2016-08-02T01:18:00Z,27.6346,-97.2370,0.994,1111122 
TCOON,ioos:station:TCOON:005:1,2016-08-02T02:18:00Z,27.6346,-97.2370,0.977,1111122 
TCOON,ioos:station:TCOON:005:1,2016-08-02T03:18:00Z,27.6346,-97.2370,0.963,1111122 
TCOON,ioos:station:TCOON:005:1,2016-08-02T04:18:00Z,27.6346,-97.2370,0.951,1111122 
TCOON,ioos:station:TCOON:005:1,2016-08-02T05:18:00Z,27.6346,-97.2370,0.939,1111122 
TCOON,ioos:station:TCOON:005:1,2016-08-02T06:18:00Z,27.6346,-97.2370,0.937,1111122 
TCOON,ioos:station:TCOON:005:1,2016-08-02T07:18:00Z,27.6346,-97.2370,0.947,1111122 
TCOON,ioos:station:TCOON:005:1,2016-08-02T08:18:00Z,27.6346,-97.2370,0.947,1111122 
TCOON,ioos:station:TCOON:005:1,2016-08-02T09:18:00Z,27.6346,-97.2370,0.955,1111122 
TCOON,ioos:station:TCOON:005:1,2016-08-02T10:18:00Z,27.6346,-97.2370,0.967,1111122 
TCOON,ioos:station:TCOON:005:1,2016-08-02T11:18:00Z,27.6346,-97.2370,0.982,1111122 
TCOON,ioos:station:TCOON:005:1,2016-08-02T12:18:00Z,27.6346,-97.2370,1.005,1111122 
TCOON,ioos:station:TCOON:005:1,2016-08-02T13:18:00Z,27.6346,-97.2370,1.021,1111122 
TCOON,ioos:station:TCOON:005:1,2016-08-02T14:18:00Z,27.6346,-97.2370,1.034,1111122 
TCOON,ioos:station:TCOON:005:1,2016-08-02T15:18:00Z,27.6346,-97.2370,1.054,1111122 
TCOON,ioos:station:TCOON:005:1,2016-08-02T16:18:00Z,27.6346,-97.2370,1.064,1111122 
TCOON,ioos:station:TCOON:005:1,2016-08-02T17:18:00Z,27.6346,-97.2370,1.073,1111122 
TCOON,ioos:station:TCOON:005:1,2016-08-02T18:18:00Z,27.6346,-97.2370,1.081,1111122 
TCOON,ioos:station:TCOON:005:1,2016-08-02T19:18:00Z,27.6346,-97.2370,1.088,1111122 
TCOON,ioos:station:TCOON:005:1,2016-08-02T20:18:00Z,27.6346,-97.2370,1.1,1111122 
TCOON,ioos:station:TCOON:005:1,2016-08-02T21:18:00Z,27.6346,-97.2370,1.105,1111122 
TCOON,ioos:station:TCOON:005:1,2016-08-02T22:18:00Z,27.6346,-97.2370,1.102,1111122 
TCOON,ioos:station:TCOON:005:1,2016-08-02T23:18:00Z,27.6346,-97.2370,1.095,1111122 
TCOON,ioos:station:TCOON:005:1,2016-08-03T00:18:00Z,27.6346,-97.2370,1.082,1111122 
TCOON,ioos:station:TCOON:005:1,2016-08-03T01:18:00Z,27.6346,-97.2370,1.064,1111122 
TCOON,ioos:station:TCOON:005:1,2016-08-03T02:18:00Z,27.6346,-97.2370,1.048,1111122 
TCOON,ioos:station:TCOON:005:1,2016-08-03T03:18:00Z,27.6346,-97.2370,1.032,1111122 
TCOON,ioos:station:TCOON:005:1,2016-08-03T04:18:00Z,27.6346,-97.2370,1.018,1111122 
TCOON,ioos:station:TCOON:005:1,2016-08-03T05:18:00Z,27.6346,-97.2370,1.006,1111122 
TCOON,ioos:station:TCOON:005:1,2016-08-03T06:18:00Z,27.6346,-97.2370,0.996,1111122 
TCOON,ioos:station:TCOON:005:1,2016-08-03T07:12:00Z,27.6346,-97.2370,0.999,1111122 
TCOON,ioos:station:TCOON:005:1,2016-08-03T08:18:00Z,27.6346,-97.2370,1.0,1111122 
TCOON,ioos:station:TCOON:005:1,2016-08-03T09:18:00Z,27.6346,-97.2370,1.007,1111122 
TCOON,ioos:station:TCOON:005:1,2016-08-03T10:18:00Z,27.6346,-97.2370,1.016,1111122 
TCOON,ioos:station:TCOON:005:1,2016-08-03T11:18:00Z,27.6346,-97.2370,1.033,1111122 
TCOON,ioos:station:TCOON:005:1,2016-08-03T12:18:00Z,27.6346,-97.2370,1.05,1111122 
TCOON,ioos:station:TCOON:005:1,2016-08-03T13:18:00Z,27.6346,-97.2370,1.063,1111122 
TCOON,ioos:station:TCOON:005:1,2016-08-03T14:18:00Z,27.6346,-97.2370,1.077,1111122 
TCOON,ioos:station:TCOON:005:1,2016-08-03T15:18:00Z,27.6346,-97.2370,1.089,1111122 
TCOON,ioos:station:TCOON:005:1,2016-08-03T16:18:00Z,27.6346,-97.2370,1.099,1111122 
TCOON,ioos:station:TCOON:005:1,2016-08-03T17:18:00Z,27.6346,-97.2370,1.104,1111122 
TCOON,ioos:station:TCOON:005:1,2016-08-03T18:18:00Z,27.6346,-97.2370,1.11,1111122 
TCOON,ioos:station:TCOON:005:1,2016-08-03T19:18:00Z,27.6346,-97.2370,1.118,1111122 
TCOON,ioos:station:TCOON:005:1,2016-08-05T20:18:00Z,27.6346,-97.2370,1.183,1111122 
TCOON,ioos:station:TCOON:005:1,2016-08-05T21:18:00Z,27.6346,-97.2370,1.183,1111122 
TCOON,ioos:station:TCOON:005:1,2016-08-05T22:18:00Z,27.6346,-97.2370,1.181,1111122 
TCOON,ioos:station:TCOON:005:1,2016-08-05T23:18:00Z,27.6346,-97.2370,1.182,1111122 
TCOON,ioos:station:TCOON:005:1,2016-08-06T00:18:00Z,27.6346,-97.2370,1.17,1111122 
TCOON,ioos:station:TCOON:005:1,2016-08-06T01:18:00Z,27.6346,-97.2370,1.155,1111122 
TCOON,ioos:station:TCOON:005:1,2016-08-06T02:18:00Z,27.6346,-97.2370,1.15,1111122 
TCOON,ioos:station:TCOON:005:1,2016-08-06T03:18:00Z,27.6346,-97.2370,1.138,1111122 
TCOON,ioos:station:TCOON:005:1,2016-08-06T04:18:00Z,27.6346,-97.2370,1.127,1111122 
TCOON,ioos:station:TCOON:005:1,2016-08-06T05:12:00Z,27.6346,-97.2370,1.111,1111122 
TCOON,ioos:station:TCOON:005:1,2016-08-06T06:18:00Z,27.6346,-97.2370,1.105,1111122 
TCOON,ioos:station:TCOON:005:1,2016-08-06T07:18:00Z,27.6346,-97.2370,1.104,1111122 
TCOON,ioos:station:TCOON:005:1,2016-08-06T08:18:00Z,27.6346,-97.2370,1.096,1111122 
TCOON,ioos:station:TCOON:005:1,2016-08-06T09:18:00Z,27.6346,-97.2370,1.1,1111122 
TCOON,ioos:station:TCOON:005:1,2016-08-06T10:18:00Z,27.6346,-97.2370,1.104,1111122 
TCOON,ioos:station:TCOON:005:1,2016-08-06T11:18:00Z,27.6346,-97.2370,1.105,1111122 
TCOON,ioos:station:TCOON:005:1,2016-08-06T12:18:00Z,27.6346,-97.2370,1.113,1111122 
TCOON,ioos:station:TCOON:005:1,2016-08-06T13:18:00Z,27.6346,-97.2370,1.122,1111122 
TCOON,ioos:station:TCOON:005:1,2016-08-06T14:18:00Z,27.6346,-97.2370,1.131,1111122 
TCOON,ioos:station:TCOON:005:1,2016-08-06T15:18:00Z,27.6346,-97.2370,1.14,1111122 
TCOON,ioos:station:TCOON:005:1,2016-08-06T16:18:00Z,27.6346,-97.2370,1.15,1111122 
TCOON,ioos:station:TCOON:005:1,2016-08-06T17:18:00Z,27.6346,-97.2370,1.147,1111122 
TCOON,ioos:station:TCOON:005:1,2016-08-06T18:18:00Z,27.6346,-97.2370,1.145,1111122 
TCOON,ioos:station:TCOON:005:1,2016-08-06T19:18:00Z,27.6346,-97.2370,1.136,1111122 
TCOON,ioos:station:TCOON:005:1,2016-08-06T20:18:00Z,27.6346,-97.2370,1.135,1111122 
TCOON,ioos:station:TCOON:005:1,2016-08-06T21:18:00Z,27.6346,-97.2370,1.137,1111122 
TCOON,ioos:station:TCOON:005:1,2016-08-06T22:18:00Z,27.6346,-97.2370,1.135,1111122 
TCOON,ioos:station:TCOON:005:1,2016-08-06T23:18:00Z,27.6346,-97.2370,1.129,1111122 
TCOON,ioos:station:TCOON:005:1,2016-08-07T00:18:00Z,27.6346,-97.2370,1.127,1111122 
TCOON,ioos:station:TCOON:005:1,2016-08-07T01:18:00Z,27.6346,-97.2370,1.121,1111122 
TCOON,ioos:station:TCOON:005:1,2016-08-07T02:18:00Z,27.6346,-97.2370,1.125,1111122 
TCOON,ioos:station:TCOON:005:1,2016-08-07T03:18:00Z,27.6346,-97.2370,1.118,1111122 
TCOON,ioos:station:TCOON:005:1,2016-08-07T04:18:00Z,27.6346,-97.2370,1.113,1111122 
TCOON,ioos:station:TCOON:005:1,2016-08-07T05:18:00Z,27.6346,-97.2370,1.11,1111122 
TCOON,ioos:station:TCOON:005:1,2016-08-07T06:18:00Z,27.6346,-97.2370,1.102,1111122 
TCOON,ioos:station:TCOON:005:1,2016-08-07T07:18:00Z,27.6346,-97.2370,1.095,1111122 
TCOON,ioos:station:TCOON:005:1,2016-08-07T08:18:00Z,27.6346,-97.2370,1.099,1111122 
TCOON,ioos:station:TCOON:005:1,2016-08-07T09:12:00Z,27.6346,-97.2370,1.099,1111122 
TCOON,ioos:station:TCOON:005:1,2016-08-07T10:18:00Z,27.6346,-97.2370,1.106,1111122 
TCOON,ioos:station:TCOON:005:1,2016-08-07T11:18:00Z,27.6346,-97.2370,1.108,1111122 
TCOON,ioos:station:TCOON:005:1,2016-08-07T12:12:00Z,27.6346,-97.2370,1.111,1111122 
TCOON,ioos:station:TCOON:005:1,2016-08-07T13:18:00Z,27.6346,-97.2370,1.119,1111122 
TCOON,ioos:station:TCOON:005:1,2016-08-07T14:18:00Z,27.6346,-97.2370,1.129,1111122 
TCOON,ioos:station:TCOON:005:1,2016-08-07T15:18:00Z,27.6346,-97.2370,1.142,1111122 
TCOON,ioos:station:TCOON:005:1,2016-08-07T16:12:00Z,27.6346,-97.2370,1.147,1111122 
TCOON,ioos:station:TCOON:005:1,2016-08-07T17:18:00Z,27.6346,-97.2370,1.14,1111122 
TCOON,ioos:station:TCOON:005:1,2016-08-07T18:18:00Z,27.6346,-97.2370,1.136,1111122 
TCOON,ioos:station:TCOON:005:1,2016-08-07T19:18:00Z,27.6346,-97.2370,1.131,1111122 
TCOON,ioos:station:TCOON:005:1,2016-08-07T20:18:00Z,27.6346,-97.2370,1.119,1111122 
TCOON,ioos:station:TCOON:005:1,2016-08-07T21:18:00Z,27.6346,-97.2370,1.116,1111122 
TCOON,ioos:station:TCOON:005:1,2016-08-07T22:18:00Z,27.6346,-97.2370,1.115,1111122 
TCOON,ioos:station:TCOON:005:1,2016-08-07T23:18:00Z,27.6346,-97.2370,1.107,1111122 
TCOON,ioos:station:TCOON:005:1,2016-08-08T00:18:00Z,27.6346,-97.2370,1.097,1111122 
TCOON,ioos:station:TCOON:005:1,2016-08-08T01:18:00Z,27.6346,-97.2370,1.089,1111122 
TCOON,ioos:station:TCOON:005:1,2016-08-08T02:18:00Z,27.6346,-97.2370,1.087,1111122 
TCOON,ioos:station:TCOON:005:1,2016-08-08T03:18:00Z,27.6346,-97.2370,1.089,1111122 
TCOON,ioos:station:TCOON:005:1,2016-08-08T04:18:00Z,27.6346,-97.2370,1.091,1111122 
TCOON,ioos:station:TCOON:005:1,2016-08-08T05:18:00Z,27.6346,-97.2370,1.094,1111122 
TCOON,ioos:station:TCOON:005:1,2016-08-08T06:18:00Z,27.6346,-97.2370,1.09,1111122 
TCOON,ioos:station:TCOON:005:1,2016-08-08T07:18:00Z,27.6346,-97.2370,1.093,1111122 
TCOON,ioos:station:TCOON:005:1,2016-08-08T08:18:00Z,27.6346,-97.2370,1.093,1111122 
TCOON,ioos:station:TCOON:005:1,2016-08-08T09:18:00Z,27.6346,-97.2370,1.09,1111122 
TCOON,ioos:station:TCOON:005:1,2016-08-08T10:18:00Z,27.6346,-97.2370,1.097,1111122 
TCOON,ioos:station:TCOON:005:1,2016-08-08T11:18:00Z,27.6346,-97.2370,1.098,1111122 
TCOON,ioos:station:TCOON:005:1,2016-08-08T12:18:00Z,27.6346,-97.2370,1.099,1111122 
TCOON,ioos:station:TCOON:005:1,2016-08-08T13:18:00Z,27.6346,-97.2370,1.103,1111122 
TCOON,ioos:station:TCOON:005:1,2016-08-08T14:18:00Z,27.6346,-97.2370,1.111,1111122 
TCOON,ioos:station:TCOON:005:1,2016-08-08T15:18:00Z,27.6346,-97.2370,1.114,1111122 
TCOON,ioos:station:TCOON:005:1,2016-08-08T16:18:00Z,27.6346,-97.2370,1.116,1111122 
TCOON,ioos:station:TCOON:005:1,2016-08-08T17:18:00Z,27.6346,-97.2370,1.114,1111122 
TCOON,ioos:station:TCOON:005:1,2016-08-08T18:18:00Z,27.6346,-97.2370,1.109,1111122 
TCOON,ioos:station:TCOON:005:1,2016-08-08T19:18:00Z,27.6346,-97.2370,1.103,1111122 
TCOON,ioos:station:TCOON:005:1,2016-08-08T20:18:00Z,27.6346,-97.2370,1.099,1111122 
TCOON,ioos:station:TCOON:005:1,2016-08-08T21:18:00Z,27.6346,-97.2370,1.087,1111122 
TCOON,ioos:station:TCOON:005:1,2016-08-08T22:18:00Z,27.6346,-97.2370,1.077,1111122 
TCOON,ioos:station:TCOON:005:1,2016-08-08T23:18:00Z,27.6346,-97.2370,1.072,1111122 
TCOON,ioos:station:TCOON:005:1,2016-08-09T00:18:00Z,27.6346,-97.2370,1.065,1111122 
TCOON,ioos:station:TCOON:005:1,2016-08-09T01:18:00Z,27.6346,-97.2370,1.055,1111122 
TCOON,ioos:station:TCOON:005:1,2016-08-09T02:12:00Z,27.6346,-97.2370,1.057,1111122 
TCOON,ioos:station:TCOON:005:1,2016-08-09T03:18:00Z,27.6346,-97.2370,1.064,1111122 
TCOON,ioos:station:TCOON:005:1,2016-08-09T04:18:00Z,27.6346,-97.2370,1.079,1111122 
TCOON,ioos:station:TCOON:005:1,2016-08-09T05:18:00Z,27.6346,-97.2370,1.095,1111122 
TCOON,ioos:station:TCOON:005:1,2016-08-09T06:18:00Z,27.6346,-97.2370,1.102,1111122 
TCOON,ioos:station:TCOON:005:1,2016-08-09T07:18:00Z,27.6346,-97.2370,1.104,1111122 
TCOON,ioos:station:TCOON:005:1,2016-08-09T08:18:00Z,27.6346,-97.2370,1.116,1111122 
TCOON,ioos:station:TCOON:005:1,2016-08-09T09:18:00Z,27.6346,-97.2370,1.12,1111122 
TCOON,ioos:station:TCOON:005:1,2016-08-09T10:18:00Z,27.6346,-97.2370,1.129,1111122 
TCOON,ioos:station:TCOON:005:1,2016-08-09T11:18:00Z,27.6346,-97.2370,1.136,1111122 
TCOON,ioos:station:TCOON:005:1,2016-08-09T12:18:00Z,27.6346,-97.2370,1.138,1111122 
TCOON,ioos:station:TCOON:005:1,2016-08-09T13:18:00Z,27.6346,-97.2370,1.144,1111122 
TCOON,ioos:station:TCOON:005:1,2016-08-09T14:18:00Z,27.6346,-97.2370,1.148,1111122 
TCOON,ioos:station:TCOON:005:1,2016-08-09T15:18:00Z,27.6346,-97.2370,1.142,1111122 
TCOON,ioos:station:TCOON:005:1,2016-08-09T16:18:00Z,27.6346,-97.2370,1.132,1111122 
TCOON,ioos:station:TCOON:005:1,2016-08-09T17:18:00Z,27.6346,-97.2370,1.128,1111122 
TCOON,ioos:station:TCOON:005:1,2016-08-09T18:18:00Z,27.6346,-97.2370,1.118,1111122 
TCOON,ioos:station:TCOON:005:1,2016-08-09T19:18:00Z,27.6346,-97.2370,1.103,1111122 
TCOON,ioos:station:TCOON:005:1,2016-08-09T20:18:00Z,27.6346,-97.2370,1.095,1111122 
TCOON,ioos:station:TCOON:005:1,2016-08-09T21:18:00Z,27.6346,-97.2370,1.078,1111122 
TCOON,ioos:station:TCOON:005:1,2016-08-09T22:18:00Z,27.6346,-97.2370,1.061,1111122 
TCOON,ioos:station:TCOON:005:1,2016-08-09T23:18:00Z,27.6346,-97.2370,1.053,1111122 
TCOON,ioos:station:TCOON:005:1,2016-08-10T00:18:00Z,27.6346,-97.2370,1.049,1111122 
TCOON,ioos:station:TCOON:005:1,2016-08-10T01:18:00Z,27.6346,-97.2370,1.045,1111122 
TCOON,ioos:station:TCOON:005:1,2016-08-10T02:18:00Z,27.6346,-97.2370,1.039,1111122 
TCOON,ioos:station:TCOON:005:1,2016-08-10T03:18:00Z,27.6346,-97.2370,1.037,1111122 
TCOON,ioos:station:TCOON:005:1,2016-08-10T04:18:00Z,27.6346,-97.2370,1.033,1111122 
TCOON,ioos:station:TCOON:005:1,2016-08-10T05:18:00Z,27.6346,-97.2370,1.037,1111122 
TCOON,ioos:station:TCOON:005:1,2016-08-10T06:54:00Z,27.6346,-97.2370,1.054,1111122 
TCOON,ioos:station:TCOON:005:1,2016-08-10T07:18:00Z,27.6346,-97.2370,1.058,1111122 
TCOON,ioos:station:TCOON:005:1,2016-08-10T08:18:00Z,27.6346,-97.2370,1.065,1111122 
TCOON,ioos:station:TCOON:005:1,2016-08-10T09:18:00Z,27.6346,-97.2370,1.069,1111122 
TCOON,ioos:station:TCOON:005:1,2016-08-10T10:18:00Z,27.6346,-97.2370,1.074,1111122 
TCOON,ioos:station:TCOON:005:1,2016-08-10T11:18:00Z,27.6346,-97.2370,1.082,1111122 
TCOON,ioos:station:TCOON:005:1,2016-08-10T12:18:00Z,27.6346,-97.2370,1.082,1111122 
TCOON,ioos:station:TCOON:005:1,2016-08-10T13:18:00Z,27.6346,-97.2370,1.082,1111122 
TCOON,ioos:station:TCOON:005:1,2016-08-10T14:18:00Z,27.6346,-97.2370,1.082,1111122 
TCOON,ioos:station:TCOON:005:1,2016-08-10T15:18:00Z,27.6346,-97.2370,1.081,1111122 
TCOON,ioos:station:TCOON:005:1,2016-08-10T16:18:00Z,27.6346,-97.2370,1.078,1111122 
TCOON,ioos:station:TCOON:005:1,2016-08-10T17:18:00Z,27.6346,-97.2370,1.068,1111122 
TCOON,ioos:station:TCOON:005:1,2016-08-10T18:18:00Z,27.6346,-97.2370,1.055,1111122 
TCOON,ioos:station:TCOON:005:1,2016-08-10T19:18:00Z,27.6346,-97.2370,1.039,1111122 
TCOON,ioos:station:TCOON:005:1,2016-08-10T20:18:00Z,27.6346,-97.2370,1.026,1111122 
TCOON,ioos:station:TCOON:005:1,2016-08-10T21:18:00Z,27.6346,-97.2370,1.019,1111122 
TCOON,ioos:station:TCOON:005:1,2016-08-10T22:18:00Z,27.6346,-97.2370,1.002,1111122 
TCOON,ioos:station:TCOON:005:1,2016-08-10T23:18:00Z,27.6346,-97.2370,0.998,1111122 
TCOON,ioos:station:TCOON:005:1,2016-08-11T00:18:00Z,27.6346,-97.2370,0.986,1111122 
TCOON,ioos:station:TCOON:005:1,2016-08-11T01:18:00Z,27.6346,-97.2370,0.984,1111122 
TCOON,ioos:station:TCOON:005:1,2016-08-11T02:18:00Z,27.6346,-97.2370,0.984,1111122 
TCOON,ioos:station:TCOON:005:1,2016-08-11T03:18:00Z,27.6346,-97.2370,0.98,1111122 
TCOON,ioos:station:TCOON:005:1,2016-08-11T04:18:00Z,27.6346,-97.2370,0.982,1111122 
TCOON,ioos:station:TCOON:005:1,2016-08-11T05:18:00Z,27.6346,-97.2370,0.988,1111122 
TCOON,ioos:station:TCOON:005:1,2016-08-11T06:18:00Z,27.6346,-97.2370,0.992,1111122 
TCOON,ioos:station:TCOON:005:1,2016-08-11T07:18:00Z,27.6346,-97.2370,1.004,1111122 
TCOON,ioos:station:TCOON:005:1,2016-08-11T08:18:00Z,27.6346,-97.2370,1.011,1111122 
TCOON,ioos:station:TCOON:005:1,2016-08-11T09:18:00Z,27.6346,-97.2370,1.017,1111122 
TCOON,ioos:station:TCOON:005:1,2016-08-11T10:18:00Z,27.6346,-97.2370,1.027,1111122 
TCOON,ioos:station:TCOON:005:1,2016-08-11T11:18:00Z,27.6346,-97.2370,1.037,1111122 
TCOON,ioos:station:TCOON:005:1,2016-08-11T12:18:00Z,27.6346,-97.2370,1.04,1111122 
TCOON,ioos:station:TCOON:005:1,2016-08-11T13:18:00Z,27.6346,-97.2370,1.044,1111122 
TCOON,ioos:station:TCOON:005:1,2016-08-11T14:18:00Z,27.6346,-97.2370,1.047,1111122 
TCOON,ioos:station:TCOON:005:1,2016-08-11T15:18:00Z,27.6346,-97.2370,1.044,1111122 
TCOON,ioos:station:TCOON:005:1,2016-08-11T16:18:00Z,27.6346,-97.2370,1.044,1111122 
TCOON,ioos:station:TCOON:005:1,2016-08-11T17:18:00Z,27.6346,-97.2370,1.029,1111122 
TCOON,ioos:station:TCOON:005:1,2016-08-11T18:12:00Z,27.6346,-97.2370,1.016,1111122 
TCOON,ioos:station:TCOON:005:1,2016-08-11T19:18:00Z,27.6346,-97.2370,1.007,1111122 
TCOON,ioos:station:TCOON:005:1,2016-08-11T20:18:00Z,27.6346,-97.2370,0.994,1111122 
TCOON,ioos:station:TCOON:005:1,2016-08-11T21:18:00Z,27.6346,-97.2370,0.979,1111122 
TCOON,ioos:station:TCOON:005:1,2016-08-11T22:18:00Z,27.6346,-97.2370,0.965,1111122 
TCOON,ioos:station:TCOON:005:1,2016-08-11T23:18:00Z,27.6346,-97.2370,0.953,1111122 
TCOON,ioos:station:TCOON:005:1,2016-08-12T00:36:00Z,27.6346,-97.2370,0.942,1111122 
TCOON,ioos:station:TCOON:005:1,2016-08-12T01:24:00Z,27.6346,-97.2370,0.937,1111122 
TCOON,ioos:station:TCOON:005:1,2016-08-12T02:18:00Z,27.6346,-97.2370,0.937,1111122 
TCOON,ioos:station:TCOON:005:1,2016-08-12T03:18:00Z,27.6346,-97.2370,0.94,1111122 
TCOON,ioos:station:TCOON:005:1,2016-08-12T04:18:00Z,27.6346,-97.2370,0.945,1111122 
TCOON,ioos:station:TCOON:005:1,2016-08-12T05:18:00Z,27.6346,-97.2370,0.944,1111122 
TCOON,ioos:station:TCOON:005:1,2016-08-12T06:12:00Z,27.6346,-97.2370,0.949,1111122 
TCOON,ioos:station:TCOON:005:1,2016-08-12T07:18:00Z,27.6346,-97.2370,0.955,1111122 
TCOON,ioos:station:TCOON:005:1,2016-08-12T08:18:00Z,27.6346,-97.2370,0.965,1111122 
TCOON,ioos:station:TCOON:005:1,2016-08-12T09:18:00Z,27.6346,-97.2370,0.972,1111122 
TCOON,ioos:station:TCOON:005:1,2016-08-12T10:18:00Z,27.6346,-97.2370,0.977,1111122 
TCOON,ioos:station:TCOON:005:1,2016-08-12T11:18:00Z,27.6346,-97.2370,0.984,1111122 
TCOON,ioos:station:TCOON:005:1,2016-08-12T12:18:00Z,27.6346,-97.2370,0.992,1111122 
TCOON,ioos:station:TCOON:005:1,2016-08-12T13:18:00Z,27.6346,-97.2370,0.996,1111122 
TCOON,ioos:station:TCOON:005:1,2016-08-12T14:18:00Z,27.6346,-97.2370,0.988,1111122 
TCOON,ioos:station:TCOON:005:1,2016-08-12T15:18:00Z,27.6346,-97.2370,0.993,1111122 
TCOON,ioos:station:TCOON:005:1,2016-08-12T16:18:00Z,27.6346,-97.2370,0.991,1111122 
TCOON,ioos:station:TCOON:005:1,2016-08-12T17:18:00Z,27.6346,-97.2370,0.981,1111122 
TCOON,ioos:station:TCOON:005:1,2016-08-12T18:18:00Z,27.6346,-97.2370,0.969,1111122 
TCOON,ioos:station:TCOON:005:1,2016-08-12T19:18:00Z,27.6346,-97.2370,0.958,1111122 
TCOON,ioos:station:TCOON:005:1,2016-08-12T20:18:00Z,27.6346,-97.2370,0.95,1111122 
TCOON,ioos:station:TCOON:005:1,2016-08-12T21:18:00Z,27.6346,-97.2370,0.939,1111122 
TCOON,ioos:station:TCOON:005:1,2016-08-12T22:18:00Z,27.6346,-97.2370,0.919,1111122 
TCOON,ioos:station:TCOON:005:1,2016-08-12T23:18:00Z,27.6346,-97.2370,0.906,1111122 
TCOON,ioos:station:TCOON:005:1,2016-08-13T00:18:00Z,27.6346,-97.2370,0.9,1111122 
TCOON,ioos:station:TCOON:005:1,2016-08-13T01:18:00Z,27.6346,-97.2370,0.896,1111122 
TCOON,ioos:station:TCOON:005:1,2016-08-13T02:18:00Z,27.6346,-97.2370,0.896,1111122 
TCOON,ioos:station:TCOON:005:1,2016-08-13T03:18:00Z,27.6346,-97.2370,0.894,1111122 
TCOON,ioos:station:TCOON:005:1,2016-08-13T04:18:00Z,27.6346,-97.2370,0.893,1111122 
TCOON,ioos:station:TCOON:005:1,2016-08-13T05:18:00Z,27.6346,-97.2370,0.899,1111122 
TCOON,ioos:station:TCOON:005:1,2016-08-13T06:18:00Z,27.6346,-97.2370,0.904,1111122 
TCOON,ioos:station:TCOON:005:1,2016-08-13T07:18:00Z,27.6346,-97.2370,0.908,1111122 
TCOON,ioos:station:TCOON:005:1,2016-08-13T08:18:00Z,27.6346,-97.2370,0.914,1111122 
TCOON,ioos:station:TCOON:005:1,2016-08-13T09:12:00Z,27.6346,-97.2370,0.924,1111122 
TCOON,ioos:station:TCOON:005:1,2016-08-13T10:18:00Z,27.6346,-97.2370,0.926,1111122 
TCOON,ioos:station:TCOON:005:1,2016-08-13T11:18:00Z,27.6346,-97.2370,0.956,1111122 
TCOON,ioos:station:TCOON:005:1,2016-08-13T12:18:00Z,27.6346,-97.2370,0.968,1111122 
TCOON,ioos:station:TCOON:005:1,2016-08-13T13:18:00Z,27.6346,-97.2370,0.976,1111122 
TCOON,ioos:station:TCOON:005:1,2016-08-13T14:18:00Z,27.6346,-97.2370,0.981,1111122 
TCOON,ioos:station:TCOON:005:1,2016-08-13T15:18:00Z,27.6346,-97.2370,0.983,1111122 
TCOON,ioos:station:TCOON:005:1,2016-08-13T16:18:00Z,27.6346,-97.2370,0.984,1111122 
TCOON,ioos:station:TCOON:005:1,2016-08-13T17:18:00Z,27.6346,-97.2370,0.976,1111122 
TCOON,ioos:station:TCOON:005:1,2016-08-13T18:18:00Z,27.6346,-97.2370,0.963,1111122 
TCOON,ioos:station:TCOON:005:1,2016-08-13T19:18:00Z,27.6346,-97.2370,0.955,1111122 
TCOON,ioos:station:TCOON:005:1,2016-08-13T20:18:00Z,27.6346,-97.2370,0.943,1111122 
TCOON,ioos:station:TCOON:005:1,2016-08-13T21:18:00Z,27.6346,-97.2370,0.927,1111122 
TCOON,ioos:station:TCOON:005:1,2016-08-13T22:18:00Z,27.6346,-97.2370,0.912,1111122 
TCOON,ioos:station:TCOON:005:1,2016-08-13T23:18:00Z,27.6346,-97.2370,0.897,1111122 
TCOON,ioos:station:TCOON:005:1,2016-08-14T00:18:00Z,27.6346,-97.2370,0.888,1111122 
TCOON,ioos:station:TCOON:005:1,2016-08-14T01:18:00Z,27.6346,-97.2370,0.884,1111122 
TCOON,ioos:station:TCOON:005:1,2016-08-14T02:18:00Z,27.6346,-97.2370,0.877,1111122 
TCOON,ioos:station:TCOON:005:1,2016-08-14T03:18:00Z,27.6346,-97.2370,0.874,1111122 
TCOON,ioos:station:TCOON:005:1,2016-08-14T04:18:00Z,27.6346,-97.2370,0.869,1111122 
TCOON,ioos:station:TCOON:005:1,2016-08-14T05:18:00Z,27.6346,-97.2370,0.88,1111122 
TCOON,ioos:station:TCOON:005:1,2016-08-14T06:18:00Z,27.6346,-97.2370,0.885,1111122 
TCOON,ioos:station:TCOON:005:1,2016-08-14T07:18:00Z,27.6346,-97.2370,0.895,1111122 
TCOON,ioos:station:TCOON:005:1,2016-08-14T08:18:00Z,27.6346,-97.2370,0.902,1111122 
TCOON,ioos:station:TCOON:005:1,2016-08-14T09:18:00Z,27.6346,-97.2370,0.917,1111122 
TCOON,ioos:station:TCOON:005:1,2016-08-14T10:18:00Z,27.6346,-97.2370,0.936,1111122 
TCOON,ioos:station:TCOON:005:1,2016-08-14T11:18:00Z,27.6346,-97.2370,0.953,1111122 
TCOON,ioos:station:TCOON:005:1,2016-08-14T12:18:00Z,27.6346,-97.2370,0.988,1111122 
TCOON,ioos:station:TCOON:005:1,2016-08-14T13:18:00Z,27.6346,-97.2370,0.978,1111122 
TCOON,ioos:station:TCOON:005:1,2016-08-14T14:18:00Z,27.6346,-97.2370,0.993,1111122 
TCOON,ioos:station:TCOON:005:1,2016-08-14T15:18:00Z,27.6346,-97.2370,0.998,1111122 
TCOON,ioos:station:TCOON:005:1,2016-08-14T16:18:00Z,27.6346,-97.2370,1.005,1111122 
TCOON,ioos:station:TCOON:005:1,2016-08-14T17:18:00Z,27.6346,-97.2370,1.013,1111122 
TCOON,ioos:station:TCOON:005:1,2016-08-14T18:18:00Z,27.6346,-97.2370,1.014,1111122 
TCOON,ioos:station:TCOON:005:1,2016-08-14T19:18:00Z,27.6346,-97.2370,1.008,1111122 
TCOON,ioos:station:TCOON:005:1,2016-08-14T20:18:00Z,27.6346,-97.2370,0.999,1111122 